Regional Weather Roundup
Issued by NWS

Home | Current Version | Previous Version | Graphics & Text | Print | Product List | Glossary On
Versions: 1 2 3 4 5 6 7 8 9 10 11 12 13 14 15 16 17 18 19 20 21 22 23 24 25 26 27 28 29 30 31 32 33 34 35 36 37 38 39 40 41 42 43 44 45 46 47 48 49 50
000
ASUS45 KABQ 291510
RWRNM
WEATHER ROUNDUP FOR NEW MEXICO
NATIONAL WEATHER SERVICE ALBUQUERQUE NM
800 AM MST MON DEC 29 2014

NOTE: "FAIR" MEANS FEW OR NO CLOUDS BELOW 12,000 FEET AGL WITH NO
       SIGNIFICANT WEATHER OR OBSTRUCTIONS TO VISION.

      THIS PRODUCT IS RELEASED AS TWO VERSIONS.  ONE VERSION NEAR
      THE TOP OF THE HOUR CONTAINING PRELIMINARY DATA FROM ALBUQUERQUE
      AND OTHER STATIONS.  A FINAL VERSION WITH ADDITIONAL DATA IS
      ISSUED ABOUT 10 MINUTES AFTER THE HOUR.

NMZ501-503-504-510>518-291600-
NORTHWEST PLATEAU/NORTHCENTRAL MOUNTAINS

CITY           SKY/WX    TMP DP  RH WIND       PRES   REMARKS
FARMINGTON     CLOUDY    14   8  77 E8        30.00S WCI   3
LOS ALAMOS     CLEAR     18   7  64 SE5       29.98S WCI  11
SANTA FE       CLEAR     13   6  74 N7        30.00S WCI   3
TAOS           PTCLDY     1  -2  85 N6        29.98R WCI -10
ANGEL FIRE     FAIR      -6 -10  83 CALM      29.95S

$$
NMZ402-403-502-505>509-291600-
WESTCENTRAL MOUNTAINS/SOUTHWEST MOUNTAINS

CITY           SKY/WX    TMP DP  RH WIND       PRES   REMARKS
GALLUP         PTCLDY     5  -1  76 CALM      30.02S
GRANTS         CLEAR      5   1  85 NW6       30.04S WCI  -6
SILVER CITY    CLEAR     28   9  43 NW10      30.11S WCI  19

$$
NMZ407-409-411-412-291600-
SOUTHERN DESERTS

CITY           SKY/WX    TMP DP  RH WIND       PRES   REMARKS
LORDSBURG      FAIR      23  21  93 SW3       30.13R
DEMING         CLEAR     25  17  72 SW7       30.11R WCI  17
LAS CRUCES     CLEAR     32  22  65 SW10      30.10R WCI  23
HOLLOMAN AFB   PTCLDY    24  20  83 NE5       30.09R WCI  19
ALAMOGORDO     PTCLDY    32  23  69 CALM      30.10R
T OR C         CLEAR     28  21  75 NW3       30.07R

$$
NMZ519>523-291600-
CENTRAL VALLEYS/CENTRAL HIGHLANDS

CITY           SKY/WX    TMP DP  RH WIND       PRES   REMARKS
ALBUQUERQUE    PTCLDY    21  16  81 SE6       30.05R WCI  13
DOUBLE EAGLE   CLEAR     14   9  79 CALM      30.03R
MORIARTY ARPT  FAIR       6   2  80 NE3       30.03R
CLINES CORNERS PTCLDY    16   3  56 NW10      29.97R WCI   4
BELEN          FAIR      13   9  85 NW5       30.06R WCI   5
SOCORRO        FAIR      19  11  71 CALM      30.07S

$$
NMZ524>526-539-540-291600-
SOUTHCENTRAL MOUNTAINS

CITY           SKY/WX    TMP DP  RH WIND       PRES   REMARKS
RUIDOSO        PTCLDY    25   9  50 CALM      30.04S

$$
NMZ527>531-291600-
NORTHEAST HIGHLANDS/NORTHEAST PLAINS

CITY           SKY/WX    TMP DP  RH WIND       PRES   REMARKS
LAS VEGAS      PTCLDY    23   6  48 N3        29.97R
RATON          PTCLDY     9   3  77 CALM      29.95S
CLAYTON        CLEAR     19  10  68 N6        30.00R WCI  11

$$
NMZ532>537-291600-
EASTCENTRAL PLAINS

CITY           SKY/WX    TMP DP  RH WIND       PRES   REMARKS
TUCUMCARI      CLEAR     27  15  61 NW7       30.00R WCI  19
CANNON AFB     PTCLDY    29  10  45 NW13      30.01R WCI  19
CLOVIS AIRPORT PTCLDY    28  10  47 W7        30.01R WCI  21

$$
NMZ028-029-538-291600-
SOUTHEAST PLAINS

CITY           SKY/WX    TMP DP  RH WIND       PRES   REMARKS
ROSWELL        CLEAR     28  15  58 NW7       30.06R WCI  21
ARTESIA        CLEAR     30  18  59 N8        30.06R WCI  23
CARLSBAD       SUNNY     35  28  75 CALM      30.05R
HOBBS          SUNNY     32  28  86 CALM      30.06R


$$



USA.gov is the U.S. government's official web portal to all federal, state and local government web resources and services.